| time (UTC) | temp F | wind direction | speed MPH | gust MPH | rain 1hr in | rain 24hr in | rain mn in | humidity % | barometer mb |
| 20260510001803 | 65 | 124 | 4.0 | 12.0 | 0.00 | 0.00 | 0.00 | 21 | 1020.1 |
| 20260510000802 | 65 | 109 | 3.0 | 15.0 | 0.00 | 0.00 | 0.00 | 20 | 1020.1 |
| 20260509235803 | 66 | 360 | 6.0 | 14.0 | 0.00 | 0.00 | 0.00 | 18 | 1020.0 |
| 20260509234803 | 66 | 360 | 7.0 | 17.0 | 0.00 | 0.00 | 0.00 | 16 | 1020.1 |
| 20260509232704 | 66 | 346 | 4.0 | 6.0 | 0.00 | 0.00 | 0.00 | 16 | 1020.0 |
| 20260509231704 | 67 | 356 | 5.0 | 10.0 | 0.00 | 0.00 | 0.00 | 16 | 1019.9 |
| 20260509230703 | 67 | 342 | 3.0 | 6.0 | 0.00 | 0.00 | 0.00 | 16 | 1019.7 |
| 20260509225703 | 67 | 359 | 2.0 | 8.0 | 0.00 | 0.00 | 0.00 | 14 | 1019.9 |
| 20260509224704 | 67 | 337 | 5.0 | 21.0 | 0.00 | 0.00 | 0.00 | 16 | 1020.0 |
| 20260509222602 | 68 | 6 | 5.0 | 8.0 | 0.00 | 0.00 | 0.00 | 16 | 1020.1 |
| 20260509221603 | 67 | 49 | 8.0 | 15.0 | 0.00 | 0.00 | 0.00 | 15 | 1020.0 |
| 20260509220603 | 67 | 342 | 4.0 | 13.0 | 0.00 | 0.00 | 0.00 | 17 | 1020.3 |
| 20260509215604 | 67 | 10 | 12.0 | 15.0 | 0.00 | 0.00 | 0.00 | 11 | 1020.1 |
| 20260509214603 | 68 | 76 | 7.0 | 15.0 | 0.00 | 0.00 | 0.00 | 14 | 1020.1 |
| 20260509212503 | 69 | 312 | 3.0 | 14.0 | 0.00 | 0.00 | 0.00 | 16 | 1020.1 |
| 20260509211504 | 69 | 95 | 5.0 | 14.0 | 0.00 | 0.00 | 0.00 | 16 | 1020.4 |
| 20260509210504 | 69 | 1 | 9.0 | 26.0 | 0.00 | 0.00 | 0.00 | 13 | 1020.5 |
| 20260509205503 | 70 | 162 | 9.0 | 23.0 | 0.00 | 0.00 | 0.00 | 13 | 1020.1 |
| 20260509204503 | 69 | 25 | 12.0 | 8.0 | 0.00 | 0.00 | 0.00 | 13 | 1020.8 |
| 20260509203503 | 69 | 8 | 5.0 | 13.0 | 0.00 | 0.00 | 0.00 | 15 | 1020.7 |
| 20260509202502 | 69 | 25 | 2.0 | 10.0 | 0.00 | 0.00 | 0.00 | 17 | 1020.9 |
| 20260509201503 | 69 | 330 | 3.0 | 4.0 | 0.00 | 0.00 | 0.00 | 17 | 1021.1 |
| 20260509200503 | 67 | 28 | 4.0 | 6.0 | 0.00 | 0.00 | 0.00 | 20 | 1021.3 |
| 20260509195504 | 66 | 28 | 3.0 | 10.0 | 0.00 | 0.00 | 0.00 | 21 | 1021.9 |
| 20260509193402 | 66 | 339 | 12.0 | 14.0 | 0.00 | 0.00 | 0.00 | 20 | 1021.9 |
| 20260509192403 | 67 | 360 | 5.0 | 14.0 | 0.00 | 0.00 | 0.00 | 19 | 1022.0 |
| 20260509191403 | 68 | 8 | 3.0 | 6.0 | 0.00 | 0.00 | 0.00 | 16 | 1021.3 |
| 20260509190406 | 68 | 344 | 2.0 | 5.0 | 0.00 | 0.00 | 0.00 | 17 | 1021.5 |
| 20260509185404 | 67 | 332 | 0.0 | 6.0 | 0.00 | 0.00 | 0.00 | 20 | 1021.9 |
| 20260509184403 | 66 | 313 | 0.0 | 7.0 | 0.00 | 0.00 | 0.00 | 19 | 1022.0 |
| 20260509183404 | 66 | 30 | 4.0 | 13.0 | 0.00 | 0.00 | 0.00 | 19 | 1022.0 |
| 20260509182404 | 66 | 342 | 2.0 | 7.0 | 0.00 | 0.00 | 0.00 | 20 | 1022.1 |
| 20260509181405 | 66 | 333 | 2.0 | 9.0 | 0.00 | 0.00 | 0.00 | 20 | 1022.0 |
| 20260509180404 | 66 | 332 | 1.0 | 6.0 | 0.00 | 0.00 | 0.00 | 20 | 1022.3 |
| 20260509175402 | 66 | 360 | 5.0 | 10.0 | 0.00 | 0.00 | 0.00 | 19 | 1022.4 |
| 20260509174403 | 66 | 40 | 4.0 | 5.0 | 0.00 | 0.00 | 0.00 | 20 | 1022.3 |
| 20260509173404 | 65 | 14 | 7.0 | 14.0 | 0.00 | 0.00 | 0.00 | 20 | 1022.5 |
| 20260509172404 | 64 | 353 | 3.0 | 12.0 | 0.00 | 0.00 | 0.00 | 21 | 1022.5 |
| 20260509171402 | 65 | 32 | 1.0 | 10.0 | 0.00 | 0.00 | 0.00 | 20 | 1022.4 |
| 20260509170403 | 66 | 330 | 4.0 | 8.0 | 0.00 | 0.00 | 0.00 | 19 | 1022.4 |
| 20260509165404 | 65 | 16 | 7.0 | 8.0 | 0.00 | 0.00 | 0.00 | 20 | 1022.5 |
| 20260509164405 | 65 | 332 | 4.0 | 8.0 | 0.00 | 0.00 | 0.00 | 19 | 1022.3 |
| 20260509163403 | 65 | 360 | 0.0 | 10.0 | 0.00 | 0.00 | 0.00 | 19 | 1022.4 |
| 20260509160203 | 64 | 48 | 5.0 | 8.0 | 0.00 | 0.00 | 0.00 | 20 | 1022.3 |
| 20260509154103 | 61 | 32 | 5.0 | 7.0 | 0.00 | 0.00 | 0.00 | 24 | 1022.5 |
| 20260509153104 | 60 | 58 | 1.0 | 5.0 | 0.00 | 0.00 | 0.00 | 29 | 1022.5 |
| 20260509152102 | 59 | 41 | 0.0 | 0.0 | 0.00 | 0.00 | 0.00 | 29 | 1022.7 |
| 20260509151103 | 58 | 41 | 0.0 | 0.0 | 0.00 | 0.00 | 0.00 | 30 | 1022.7 |
| 20260509150104 | 57 | 56 | 0.0 | 4.0 | 0.00 | 0.00 | 0.00 | 35 | 1022.7 |
| 20260509145102 | 55 | 18 | 2.0 | 3.0 | 0.00 | 0.00 | 0.00 | 38 | 1022.7 |
| 20260509144103 | 53 | 62 | 0.0 | 0.0 | 0.00 | 0.00 | 0.00 | 43 | 1022.7 |
| 20260509143103 | 51 | 62 | 0.0 | 2.0 | 0.00 | 0.00 | 0.00 | 48 | 1022.7 |
| 20260509142102 | 49 | 17 | 2.0 | 1.0 | 0.00 | 0.00 | 0.00 | 54 | 1022.5 |
| 20260509141103 | 47 | 64 | 1.0 | 4.0 | 0.00 | 0.00 | 0.00 | 55 | 1022.5 |
| 20260509140103 | 45 | 58 | 0.0 | 7.0 | 0.00 | 0.00 | 0.00 | 58 | 1022.7 |
| 20260509135104 | 44 | 130 | 0.0 | 0.0 | 0.00 | 0.00 | 0.00 | 57 | 1022.7 |
| 20260509133004 | 44 | 184 | 2.0 | 3.0 | 0.00 | 0.00 | 0.00 | 57 | 1022.7 |
| 20260509130902 | 44 | 109 | 0.0 | 10.0 | 0.00 | 0.00 | 0.00 | 56 | 1022.7 |
| 20260509125903 | 44 | 179 | 1.0 | 3.0 | 0.00 | 0.00 | 0.00 | 56 | 1022.4 |
| 20260509124904 | 44 | 203 | 1.0 | 8.0 | 0.00 | 0.00 | 0.00 | 57 | 1022.4 |
| 20260509123904 | 44 | 165 | 0.0 | 0.0 | 0.00 | 0.00 | 0.00 | 57 | 1022.3 |
| 20260509122903 | 43 | 360 | 1.0 | 3.0 | 0.00 | 0.00 | 0.00 | 57 | 1022.3 |
| 20260509121903 | 44 | 208 | 0.0 | 2.0 | 0.00 | 0.00 | 0.00 | 56 | 1022.1 |
| 20260509120904 | 44 | 112 | 0.0 | 1.0 | 0.00 | 0.00 | 0.00 | 56 | 1021.9 |
| 20260509114804 | 44 | 136 | 0.0 | 0.0 | 0.00 | 0.00 | 0.00 | 55 | 1021.7 |
| 20260509112702 | 45 | 80 | 0.0 | 3.0 | 0.00 | 0.00 | 0.00 | 55 | 1021.6 |
| 20260509111703 | 45 | 126 | 1.0 | 2.0 | 0.00 | 0.00 | 0.00 | 55 | 1021.6 |
| 20260509110704 | 45 | 176 | 1.0 | 4.0 | 0.00 | 0.00 | 0.00 | 54 | 1021.5 |
| 20260509105702 | 46 | 260 | 0.0 | 2.0 | 0.00 | 0.00 | 0.00 | 53 | 1021.5 |
| 20260509104703 | 46 | 185 | 0.0 | 3.0 | 0.00 | 0.00 | 0.00 | 52 | 1021.5 |
| 20260509103703 | 46 | 244 | 0.0 | 2.0 | 0.00 | 0.00 | 0.00 | 51 | 1021.5 |
| 20260509102702 | 46 | 68 | 2.0 | 10.0 | 0.00 | 0.00 | 0.00 | 51 | 1021.5 |
| 20260509101702 | 46 | 30 | 0.0 | 4.0 | 0.00 | 0.00 | 0.00 | 51 | 1021.5 |
| 20260509100703 | 46 | 124 | 2.0 | 0.0 | 0.00 | 0.00 | 0.00 | 52 | 1021.6 |
| 20260509094603 | 46 | 205 | 0.0 | 8.0 | 0.00 | 0.00 | 0.00 | 51 | 1021.6 |
| 20260509092504 | 46 | 126 | 1.0 | 7.0 | 0.00 | 0.00 | 0.00 | 52 | 1021.5 |
| 20260509091502 | 47 | 154 | 1.0 | 2.0 | 0.00 | 0.00 | 0.00 | 51 | 1021.5 |
| 20260509090503 | 47 | 202 | 0.0 | 10.0 | 0.00 | 0.00 | 0.00 | 50 | 1021.5 |
| 20260509085503 | 47 | 123 | 0.0 | 2.0 | 0.00 | 0.00 | 0.00 | 50 | 1021.5 |
| 20260509084502 | 48 | 148 | 1.0 | 4.0 | 0.00 | 0.00 | 0.00 | 50 | 1021.5 |
| 20260509082404 | 49 | 104 | 0.0 | 2.0 | 0.00 | 0.00 | 0.00 | 47 | 1021.5 |
| 20260509080303 | 50 | 145 | 0.0 | 3.0 | 0.00 | 0.00 | 0.00 | 45 | 1021.3 |
| 20260509074203 | 49 | 234 | 3.0 | 3.0 | 0.00 | 0.00 | 0.00 | 46 | 1021.1 |
| 20260509073203 | 50 | 169 | 2.0 | 10.0 | 0.00 | 0.00 | 0.00 | 45 | 1021.3 |
| 20260509072202 | 50 | 241 | 0.0 | 6.0 | 0.00 | 0.00 | 0.00 | 45 | 1021.2 |
| 20260509071203 | 50 | 360 | 2.0 | 4.0 | 0.00 | 0.00 | 0.00 | 45 | 1021.3 |
| 20260509070203 | 50 | 229 | 0.0 | 9.0 | 0.00 | 0.00 | 0.00 | 45 | 1021.3 |
| 20260509065204 | 50 | 360 | 2.0 | 2.0 | 0.00 | 0.00 | 0.00 | 44 | 1021.3 |
| 20260509064204 | 50 | 200 | 1.0 | 6.0 | 0.00 | 0.00 | 0.00 | 44 | 1021.6 |
| 20260509063203 | 50 | 237 | 1.0 | 3.0 | 0.00 | 0.00 | 0.00 | 44 | 1021.6 |
| 20260509062204 | 50 | 123 | 1.0 | 6.0 | 0.00 | 0.00 | 0.00 | 44 | 1021.7 |
| 20260509061204 | 50 | 133 | 0.0 | 9.0 | 0.00 | 0.00 | 0.00 | 45 | 1021.7 |
| 20260509060203 | 51 | 198 | 3.0 | 4.0 | 0.00 | 0.00 | 0.00 | 44 | 1021.7 |
| 20260509055203 | 51 | 360 | 4.0 | 10.0 | 0.00 | 0.00 | 0.00 | 43 | 1021.7 |
| 20260509054204 | 51 | 360 | 1.0 | 9.0 | 0.00 | 0.00 | 0.00 | 43 | 1021.7 |
| 20260509053202 | 51 | 72 | 0.0 | 4.0 | 0.00 | 0.00 | 0.00 | 43 | 1021.7 |
| 20260509051103 | 52 | 99 | 0.0 | 9.0 | 0.00 | 0.00 | 0.00 | 42 | 1021.7 |
| 20260509045003 | 52 | 175 | 1.0 | 7.0 | 0.00 | 0.00 | 0.00 | 41 | 1021.9 |
| 20260509044004 | 53 | 120 | 0.0 | 4.0 | 0.00 | 0.00 | 0.00 | 41 | 1021.7 |
| 20260509043002 | 53 | 179 | 0.0 | 4.0 | 0.00 | 0.00 | 0.00 | 40 | 1021.9 |
| 20260509042003 | 54 | 333 | 1.0 | 7.0 | 0.00 | 0.00 | 0.00 | 39 | 1021.9 |
| 20260509035903 | 54 | 155 | 0.0 | 9.0 | 0.00 | 0.00 | 0.00 | 39 | 1021.7 |
| 20260509034902 | 54 | 147 | 2.0 | 9.0 | 0.00 | 0.00 | 0.00 | 39 | 1021.6 |
| 20260509033903 | 55 | 320 | 0.0 | 10.0 | 0.00 | 0.00 | 0.00 | 38 | 1021.6 |
| 20260509032903 | 55 | 172 | 0.0 | 3.0 | 0.00 | 0.00 | 0.00 | 39 | 1021.5 |
| 20260509031904 | 55 | 150 | 1.0 | 4.0 | 0.00 | 0.00 | 0.00 | 38 | 1021.3 |
| 20260509030904 | 56 | 130 | 1.0 | 2.0 | 0.00 | 0.00 | 0.00 | 37 | 1021.2 |
| 20260509025903 | 57 | 107 | 0.0 | 3.0 | 0.00 | 0.00 | 0.00 | 37 | 1021.1 |
| 20260509024904 | 57 | 169 | 0.0 | 3.0 | 0.00 | 0.00 | 0.00 | 36 | 1020.9 |
| 20260509023904 | 58 | 265 | 0.0 | 2.0 | 0.00 | 0.00 | 0.00 | 34 | 1020.7 |
| 20260509022903 | 59 | 205 | 1.0 | 6.0 | 0.00 | 0.00 | 0.00 | 32 | 1020.5 |
| 20260509021903 | 59 | 360 | 0.0 | 8.0 | 0.00 | 0.00 | 0.00 | 30 | 1020.3 |
| 20260509020902 | 60 | 152 | 0.0 | 4.0 | 0.00 | 0.00 | 0.00 | 31 | 1020.1 |
| 20260509015902 | 61 | 263 | 2.0 | 9.0 | 0.00 | 0.00 | 0.00 | 28 | 1019.9 |
| 20260509014903 | 62 | 360 | 2.0 | 9.0 | 0.00 | 0.00 | 0.00 | 28 | 1019.9 |
| 20260509013904 | 63 | 217 | 0.0 | 10.0 | 0.00 | 0.00 | 0.00 | 26 | 1019.7 |
| 20260509012902 | 64 | 360 | 1.0 | 8.0 | 0.00 | 0.00 | 0.00 | 23 | 1019.7 |
| 20260509010803 | 65 | 330 | 3.0 | 7.0 | 0.00 | 0.00 | 0.00 | 17 | 1019.5 |
| 20260509005803 | 66 | 48 | 0.0 | 4.0 | 0.00 | 0.00 | 0.00 | 17 | 1019.5 |
| 20260509004802 | 66 | 54 | 1.0 | 16.0 | 0.00 | 0.00 | 0.00 | 15 | 1019.6 |
| 20260509003803 | 67 | 360 | 6.0 | 16.0 | 0.00 | 0.00 | 0.00 | 15 | 1019.6 |